Location: 5810 Zion Rd, Cleves, OH 45002, USA
(39.1922°N, 84.7113°W)
Time: 16:12:26
(UTC-05:00)

Courier 1B Rocket - Pass Details

Date: 10 December 2019
Orbit: 920 x 1202 km, 28.2° (Epoch: 26 January)

Event Time Altitude Azimuth Distance (km) Brightness Sun altitude
Rises 08:28:30 0° 247° (WSW) 3,757 7.8 5.9°
Reaches altitude 10° 08:31:33 10° 238° (WSW) 2,760 7.2 6.4°
Maximum altitude 08:37:16 31° 178° (S) 1,613 6.8 7.2°
Drops below altitude 10° 08:42:43 10° 119° (ESE) 2,632 9.7 8.1°
Sets 08:45:34 0° 109° (ESE) 3,558 9.5 8.5°
